Location: Christianberg
(48.9086°N, 14.0209°E)
Time: 21:35:10
(UTC+00:00)

DELTA 2 R/B (1) - Pass Details

Date: 20 June 2021
Orbit: 790 x 803 km, 39.6° (Epoch: 04 August)

Event Time Altitude Azimuth Distance (km) Brightness Sun altitude
Exits shadow 00:17:04 25° 187° (S) 1,535 4.5 -15.9°
Maximum altitude 00:18:11 27° 167° (SSE) 1,470 4.5 -15.9°
Drops below altitude 10° 00:22:46 10° 111° (ESE) 2,350 6.0 -15.6°
Sets 00:25:34 0° 100° (E) 3,282 6.9 -15.5°
